| time (UTC) | temp C | wind direction | speed KPH | gust KPH | rain 1hr cm | rain 24hr cm | rain mn cm | humidity % | barometer mb |
| 20260507095655 | 5 | 197 | 3.2 | 3.2 | 0.00 | 0.00 | 0.00 | 97 | 1007.9 |
| 20260507095151 | 5 | 192 | 1.6 | 1.6 | 0.00 | 0.00 | 0.00 | 98 | 1007.8 |
| 20260507094648 | 5 | 193 | 1.6 | 3.2 | 0.00 | 0.00 | 0.00 | 98 | 1007.5 |
| 20260507094144 | 5 | 193 | 3.2 | 3.2 | 0.00 | 0.00 | 0.00 | 98 | 1007.7 |
| 20260507093642 | 5 | 193 | 1.6 | 1.6 | 0.00 | 0.00 | 0.00 | 98 | 1007.6 |
| 20260507093141 | 5 | 193 | 1.6 | 1.6 | 0.00 | 0.00 | 0.00 | 98 | 1007.3 |
| 20260507092637 | 5 | 193 | 1.6 | 1.6 | 0.00 | 0.00 | 0.00 | 98 | 1007.2 |
| 20260507092134 | 5 | 193 | 1.6 | 1.6 | 0.00 | 0.00 | 0.00 | 98 | 1007.2 |
| 20260507091630 | 5 | 188 | 1.6 | 1.6 | 0.00 | 0.00 | 0.00 | 98 | 1007.4 |
| 20260507091126 | 5 | 190 | 3.2 | 4.8 | 0.00 | 0.00 | 0.00 | 98 | 1007.4 |
| 20260507090622 | 5 | 182 | 1.6 | 1.6 | 0.00 | 0.00 | 0.00 | 97 | 1007.2 |
| 20260507090120 | 5 | 182 | 0.0 | 1.6 | 0.00 | 0.00 | 0.00 | 97 | 1007.5 |
| 20260507085616 | 6 | 186 | 3.2 | 3.2 | 0.00 | 0.00 | 0.00 | 97 | 1007.5 |
| 20260507085113 | 6 | 172 | 1.6 | 1.6 | 0.00 | 0.00 | 0.00 | 97 | 1007.3 |
| 20260507084610 | 6 | 177 | 1.6 | 1.6 | 0.00 | 0.00 | 0.00 | 96 | 1007.3 |
| 20260507084107 | 6 | 192 | 1.6 | 1.6 | 0.00 | 0.00 | 0.00 | 96 | 1007.3 |
| 20260507083603 | 6 | 192 | 1.6 | 1.6 | 0.00 | 0.00 | 0.00 | 96 | 1007.6 |
| 20260507083101 | 6 | 214 | 3.2 | 3.2 | 0.00 | 0.00 | 0.00 | 95 | 1007.5 |
| 20260507082556 | 6 | 197 | 1.6 | 3.2 | 0.00 | 0.00 | 0.00 | 95 | 1007.7 |
| 20260507082053 | 6 | 179 | 1.6 | 1.6 | 0.00 | 0.00 | 0.00 | 95 | 1007.6 |
| 20260507081549 | 6 | 150 | 1.6 | 1.6 | 0.00 | 0.00 | 0.00 | 95 | 1007.7 |
| 20260507081046 | 6 | 168 | 1.6 | 1.6 | 0.00 | 0.00 | 0.00 | 95 | 1008.2 |
| 20260507080541 | 6 | 123 | 1.6 | 3.2 | 0.00 | 0.00 | 0.00 | 95 | 1008.1 |
| 20260507080033 | 6 | 129 | 6.4 | 6.4 | 0.00 | 0.00 | 0.00 | 95 | 1008.0 |
| 20260507075528 | 7 | 164 | 1.6 | 1.6 | 0.00 | 0.00 | 0.00 | 95 | 1008.2 |
| 20260507075024 | 7 | 200 | 1.6 | 3.2 | 0.00 | 0.00 | 0.00 | 95 | 1008.0 |
| 20260507074521 | 7 | 205 | 1.6 | 3.2 | 0.00 | 0.00 | 0.00 | 95 | 1007.9 |
| 20260507074020 | 7 | 332 | 6.4 | 9.7 | 0.00 | 0.00 | 0.00 | 95 | 1008.0 |
| 20260507073516 | 7 | 173 | 1.6 | 1.6 | 0.00 | 0.00 | 0.00 | 96 | 1008.0 |
| 20260507073012 | 7 | 205 | 0.0 | 0.0 | 0.00 | 0.00 | 0.00 | 96 | 1008.2 |
| 20260507072510 | 7 | 205 | 1.6 | 1.6 | 0.00 | 0.00 | 0.00 | 95 | 1008.1 |
| 20260507072007 | 6 | 206 | 1.6 | 1.6 | 0.00 | 0.00 | 0.00 | 95 | 1007.9 |
| 20260507071504 | 6 | 203 | 1.6 | 1.6 | 0.00 | 0.00 | 0.00 | 95 | 1008.2 |
| 20260507071001 | 7 | 215 | 3.2 | 3.2 | 0.00 | 0.00 | 0.00 | 96 | 1008.1 |
| 20260507070458 | 6 | 215 | 1.6 | 1.6 | 0.00 | 0.00 | 0.00 | 95 | 1008.2 |
| 20260507065954 | 6 | 216 | 3.2 | 4.8 | 0.00 | 0.00 | 0.00 | 95 | 1008.0 |
| 20260507065451 | 6 | 214 | 1.6 | 1.6 | 0.00 | 0.00 | 0.00 | 96 | 1008.0 |
| 20260507064948 | 6 | 214 | 1.6 | 1.6 | 0.00 | 0.00 | 0.00 | 96 | 1007.9 |
| 20260507064447 | 7 | 214 | 3.2 | 3.2 | 0.00 | 0.00 | 0.00 | 96 | 1008.4 |
| 20260507063944 | 6 | 205 | 0.0 | 0.0 | 0.00 | 0.00 | 0.00 | 97 | 1007.7 |
| 20260507063441 | 7 | 204 | 1.6 | 1.6 | 0.00 | 0.00 | 0.00 | 97 | 1007.9 |
| 20260507062938 | 7 | 204 | 3.2 | 3.2 | 0.00 | 0.00 | 0.00 | 97 | 1007.6 |
| 20260507062435 | 7 | 184 | 3.2 | 3.2 | 0.00 | 0.00 | 0.00 | 97 | 1007.6 |
| 20260507061932 | 7 | 194 | 1.6 | 1.6 | 0.00 | 0.00 | 0.00 | 97 | 1007.7 |
| 20260507061430 | 7 | 200 | 3.2 | 3.2 | 0.00 | 0.00 | 0.00 | 97 | 1007.7 |
| 20260507060928 | 7 | 194 | 1.6 | 1.6 | 0.00 | 0.00 | 0.00 | 97 | 1007.8 |
| 20260507060425 | 7 | 194 | 1.6 | 1.6 | 0.00 | 0.00 | 0.00 | 97 | 1007.4 |
| 20260507055921 | 7 | 172 | 1.6 | 1.6 | 0.00 | 0.00 | 0.00 | 96 | 1007.8 |
| 20260507055416 | 7 | 193 | 3.2 | 3.2 | 0.00 | 0.00 | 0.00 | 96 | 1007.6 |
| 20260507054908 | 7 | 190 | 1.6 | 1.6 | 0.00 | 0.00 | 0.00 | 96 | 1007.5 |
| 20260507054404 | 7 | 160 | 1.6 | 1.6 | 0.00 | 0.00 | 0.00 | 95 | 1007.5 |
| 20260507053901 | 7 | 201 | 3.2 | 3.2 | 0.00 | 0.00 | 0.00 | 96 | 1006.8 |
| 20260507053359 | 7 | 176 | 1.6 | 1.6 | 0.00 | 0.00 | 0.00 | 96 | 1007.4 |
| 20260507052858 | 7 | 198 | 1.6 | 3.2 | 0.00 | 0.00 | 0.00 | 96 | 1007.0 |
| 20260507052354 | 7 | 156 | 1.6 | 1.6 | 0.00 | 0.00 | 0.00 | 96 | 1007.0 |
| 20260507051852 | 7 | 170 | 1.6 | 3.2 | 0.00 | 0.00 | 0.00 | 96 | 1007.0 |
| 20260507051349 | 7 | 178 | 1.6 | 3.2 | 0.00 | 0.00 | 0.00 | 95 | 1007.5 |
| 20260507050846 | 7 | 180 | 0.0 | 1.6 | 0.00 | 0.00 | 0.00 | 95 | 1007.2 |
| 20260507050342 | 7 | 144 | 1.6 | 1.6 | 0.00 | 0.00 | 0.00 | 94 | 1007.2 |
| 20260507045839 | 7 | 198 | 0.0 | 0.0 | 0.00 | 0.00 | 0.00 | 94 | 1007.8 |
| 20260507045336 | 7 | 213 | 0.0 | 0.0 | 0.00 | 0.00 | 0.00 | 94 | 1007.6 |
| 20260507044833 | 7 | 209 | 0.0 | 1.6 | 0.00 | 0.00 | 0.00 | 93 | 1007.9 |
| 20260507044329 | 7 | 189 | 1.6 | 1.6 | 0.00 | 0.00 | 0.00 | 93 | 1007.6 |
| 20260507043825 | 7 | 206 | 3.2 | 3.2 | 0.00 | 0.00 | 0.00 | 93 | 1007.9 |
| 20260507043322 | 7 | 199 | 1.6 | 1.6 | 0.00 | 0.00 | 0.00 | 94 | 1007.6 |
| 20260507042818 | 7 | 198 | 0.0 | 0.0 | 0.00 | 0.00 | 0.00 | 93 | 1007.7 |
| 20260507042314 | 7 | 199 | 0.0 | 0.0 | 0.00 | 0.00 | 0.00 | 93 | 1007.8 |
| 20260507041811 | 7 | 199 | 3.2 | 3.2 | 0.00 | 0.00 | 0.00 | 93 | 1008.0 |
| 20260507041308 | 7 | 173 | 0.0 | 0.0 | 0.00 | 0.00 | 0.00 | 93 | 1007.9 |
| 20260507040805 | 7 | 239 | 4.8 | 4.8 | 0.00 | 0.00 | 0.00 | 92 | 1007.9 |
| 20260507040301 | 7 | 218 | 1.6 | 3.2 | 0.00 | 0.00 | 0.00 | 93 | 1008.0 |
| 20260507035757 | 7 | 198 | 0.0 | 0.0 | 0.00 | 0.58 | 0.58 | 93 | 1007.9 |
| 20260507035252 | 7 | 193 | 3.2 | 4.8 | 0.00 | 0.58 | 0.58 | 92 | 1007.7 |
| 20260507034750 | 7 | 196 | 3.2 | 3.2 | 0.00 | 0.58 | 0.58 | 92 | 1007.5 |
| 20260507034247 | 7 | 194 | 1.6 | 1.6 | 0.00 | 0.58 | 0.58 | 92 | 1007.0 |
| 20260507033746 | 7 | 165 | 1.6 | 1.6 | 0.00 | 0.58 | 0.58 | 92 | 1007.7 |
| 20260507033242 | 7 | 190 | 3.2 | 3.2 | 0.00 | 0.58 | 0.58 | 93 | 1007.3 |
| 20260507032740 | 7 | 210 | 4.8 | 4.8 | 0.00 | 0.58 | 0.58 | 92 | 1007.2 |
| 20260507032236 | 8 | 195 | 1.6 | 1.6 | 0.00 | 0.58 | 0.58 | 92 | 1007.3 |
| 20260507031732 | 8 | 311 | 3.2 | 4.8 | 0.00 | 0.58 | 0.58 | 92 | 1007.4 |
| 20260507031229 | 8 | 188 | 3.2 | 4.8 | 0.00 | 0.58 | 0.58 | 92 | 1007.5 |
| 20260507030726 | 8 | 193 | 0.0 | 0.0 | 0.00 | 0.58 | 0.58 | 93 | 1007.5 |
| 20260507030224 | 8 | 178 | 1.6 | 1.6 | 0.00 | 0.58 | 0.58 | 94 | 1007.2 |
| 20260507025720 | 8 | 186 | 3.2 | 3.2 | 0.00 | 0.58 | 0.58 | 94 | 1007.2 |
| 20260507025217 | 8 | 196 | 1.6 | 1.6 | 0.00 | 0.58 | 0.58 | 95 | 1007.2 |
| 20260507024716 | 8 | 178 | 1.6 | 1.6 | 0.00 | 0.58 | 0.58 | 94 | 1007.7 |
| 20260507024213 | 8 | 210 | 3.2 | 3.2 | 0.00 | 0.58 | 0.58 | 94 | 1007.6 |
| 20260507023708 | 8 | 217 | 4.8 | 6.4 | 0.00 | 0.58 | 0.58 | 95 | 1007.5 |
| 20260507023205 | 8 | 186 | 3.2 | 3.2 | 0.00 | 0.58 | 0.58 | 95 | 1007.5 |
| 20260507022702 | 8 | 235 | 3.2 | 4.8 | 0.00 | 0.58 | 0.58 | 95 | 1007.8 |
| 20260507022158 | 8 | 236 | 4.8 | 4.8 | 0.00 | 0.58 | 0.58 | 94 | 1007.7 |
| 20260507021655 | 8 | 205 | 3.2 | 3.2 | 0.00 | 0.58 | 0.58 | 94 | 1007.5 |
| 20260507021150 | 8 | 203 | 1.6 | 1.6 | 0.00 | 0.58 | 0.58 | 95 | 1007.7 |
| 20260507020649 | 8 | 203 | 1.6 | 3.2 | 0.00 | 0.58 | 0.58 | 95 | 1008.2 |
| 20260507020144 | 8 | 130 | 3.2 | 4.8 | 0.00 | 0.58 | 0.58 | 95 | 1008.1 |
| 20260507015643 | 8 | 198 | 1.6 | 3.2 | 0.00 | 0.58 | 0.58 | 95 | 1008.1 |
| 20260507015140 | 8 | 219 | 3.2 | 3.2 | 0.00 | 0.58 | 0.58 | 95 | 1008.0 |
| 20260507014636 | 8 | 199 | 3.2 | 3.2 | 0.00 | 0.58 | 0.58 | 95 | 1007.9 |
| 20260507014132 | 8 | 215 | 3.2 | 4.8 | 0.00 | 0.58 | 0.58 | 95 | 1007.6 |
| 20260507013629 | 8 | 224 | 1.6 | 1.6 | 0.00 | 0.58 | 0.58 | 95 | 1007.8 |
| 20260507013126 | 8 | 210 | 1.6 | 1.6 | 0.00 | 0.58 | 0.58 | 94 | 1007.7 |
| 20260507012624 | 8 | 128 | 1.6 | 3.2 | 0.00 | 0.58 | 0.58 | 94 | 1007.6 |
| 20260507012119 | 8 | 225 | 1.6 | 3.2 | 0.00 | 0.58 | 0.58 | 94 | 1007.6 |
| 20260507011618 | 8 | 129 | 6.4 | 11.3 | 0.00 | 0.58 | 0.58 | 94 | 1007.7 |
| 20260507011113 | 9 | 222 | 0.0 | 0.0 | 0.00 | 0.58 | 0.58 | 94 | 1007.8 |
| 20260507010608 | 9 | 235 | 4.8 | 4.8 | 0.00 | 0.58 | 0.58 | 94 | 1007.8 |
| 20260507010104 | 8 | 313 | 3.2 | 4.8 | 0.00 | 0.58 | 0.58 | 93 | 1007.5 |
| 20260507005602 | 9 | 214 | 4.8 | 4.8 | 0.00 | 0.58 | 0.58 | 94 | 1007.3 |
| 20260507005058 | 9 | 210 | 3.2 | 6.4 | 0.00 | 0.58 | 0.58 | 93 | 1007.0 |
| 20260507004555 | 9 | 217 | 0.0 | 1.6 | 0.00 | 0.58 | 0.58 | 95 | 1007.2 |
| 20260507004053 | 9 | 246 | 9.7 | 11.3 | 0.00 | 0.58 | 0.58 | 94 | 1007.4 |
| 20260507003548 | 9 | 43 | 3.2 | 3.2 | 0.00 | 0.58 | 0.58 | 95 | 1007.4 |
| 20260507003043 | 10 | 213 | 3.2 | 4.8 | 0.00 | 0.58 | 0.58 | 95 | 1007.3 |
| 20260507002540 | 10 | 187 | 1.6 | 3.2 | 0.00 | 0.58 | 0.58 | 95 | 1007.0 |
| 20260507002036 | 10 | 218 | 6.4 | 6.4 | 0.00 | 0.58 | 0.58 | 94 | 1006.7 |
| 20260507001533 | 10 | 194 | 1.6 | 3.2 | 0.00 | 0.58 | 0.58 | 95 | 1006.6 |
| 20260507001031 | 10 | 184 | 0.0 | 1.6 | 0.00 | 0.58 | 0.58 | 94 | 1006.6 |
| 20260507000526 | 10 | 164 | 0.0 | 1.6 | 0.00 | 0.58 | 0.58 | 94 | 1006.6 |
| 20260507000016 | 10 | 202 | 1.6 | 3.2 | 0.00 | 0.58 | 0.58 | 93 | 1006.6 |
| 20260506235514 | 10 | 199 | 1.6 | 1.6 | 0.00 | 0.58 | 0.58 | 93 | 1006.8 |
| 20260506235010 | 10 | 194 | 6.4 | 6.4 | 0.00 | 0.58 | 0.58 | 93 | 1007.0 |
| 20260506234507 | 10 | 234 | 3.2 | 4.8 | 0.00 | 0.58 | 0.58 | 93 | 1006.5 |
| 20260506233959 | 10 | 238 | 0.0 | 1.6 | 0.00 | 0.58 | 0.58 | 92 | 1006.5 |
| 20260506233455 | 10 | 210 | 1.6 | 3.2 | 0.00 | 0.58 | 0.58 | 91 | 1006.4 |
| 20260506232951 | 10 | 201 | 4.8 | 4.8 | 0.00 | 0.58 | 0.58 | 92 | 1006.0 |
| 20260506232448 | 10 | 194 | 6.4 | 6.4 | 0.00 | 0.58 | 0.58 | 93 | 1006.0 |
| 20260506231944 | 10 | 30 | 3.2 | 3.2 | 0.00 | 0.58 | 0.58 | 93 | 1005.8 |
| 20260506231441 | 11 | 177 | 0.0 | 1.6 | 0.00 | 0.58 | 0.58 | 95 | 1005.9 |
| 20260506230938 | 11 | 114 | 3.2 | 4.8 | 0.00 | 0.58 | 0.58 | 96 | 1005.9 |
| 20260506230435 | 12 | 158 | 1.6 | 3.2 | 0.00 | 0.58 | 0.58 | 97 | 1005.4 |
| 20260506225931 | 12 | 170 | 0.0 | 1.6 | 0.00 | 0.58 | 0.58 | 96 | 1005.5 |
| 20260506225429 | 12 | 183 | 1.6 | 3.2 | 0.00 | 0.58 | 0.58 | 96 | 1005.4 |
| 20260506224926 | 12 | 198 | 1.6 | 3.2 | 0.00 | 0.58 | 0.58 | 94 | 1004.8 |
| 20260506224423 | 12 | 197 | 1.6 | 1.6 | 0.00 | 0.58 | 0.58 | 94 | 1005.0 |
| 20260506223919 | 13 | 155 | 1.6 | 1.6 | 0.00 | 0.58 | 0.58 | 95 | 1004.9 |
| 20260506223415 | 14 | 191 | 3.2 | 3.2 | 0.00 | 0.58 | 0.58 | 97 | 1004.7 |
| 20260506222912 | 15 | 129 | 3.2 | 4.8 | 0.00 | 0.58 | 0.58 | 98 | 1004.4 |
| 20260506222409 | 15 | 183 | 1.6 | 3.2 | 0.00 | 0.58 | 0.58 | 99 | 1004.2 |
| 20260506221906 | 15 | 203 | 1.6 | 3.2 | 0.00 | 0.58 | 0.58 | 99 | 1004.3 |
| 20260506221403 | 15 | 202 | 0.0 | 0.0 | 0.00 | 0.58 | 0.58 | 98 | 1003.8 |
| 20260506220900 | 16 | 164 | 0.0 | 1.6 | 0.00 | 0.58 | 0.58 | 98 | 1003.6 |
| 20260506220356 | 16 | 165 | 1.6 | 1.6 | 0.00 | 0.58 | 0.58 | 98 | 1003.7 |
| 20260506215853 | 16 | 165 | 0.0 | 0.0 | 0.00 | 0.58 | 0.58 | 97 | 1003.8 |
| 20260506215348 | 16 | 164 | 0.0 | 0.0 | 0.00 | 0.58 | 0.58 | 97 | 1003.6 |
| 20260506214844 | 16 | 159 | 1.6 | 3.2 | 0.00 | 0.58 | 0.58 | 97 | 1003.5 |
| 20260506214341 | 16 | 163 | 1.6 | 3.2 | 0.00 | 0.58 | 0.58 | 96 | 1003.5 |
| 20260506213839 | 16 | 158 | 0.0 | 0.0 | 0.00 | 0.58 | 0.58 | 96 | 1003.4 |
| 20260506213336 | 16 | 155 | 1.6 | 1.6 | 0.00 | 0.58 | 0.58 | 97 | 1003.7 |
| 20260506212834 | 16 | 155 | 0.0 | 0.0 | 0.00 | 0.58 | 0.58 | 99 | 1003.4 |
| 20260506212329 | 15 | 135 | 0.0 | 1.6 | 0.00 | 0.58 | 0.58 | 99 | 1003.6 |
| 20260506211824 | 15 | 165 | 1.6 | 3.2 | 0.00 | 0.58 | 0.58 | 99 | 1003.5 |
| 20260506211321 | 15 | 156 | 1.6 | 1.6 | 0.00 | 0.58 | 0.58 | 99 | 1003.7 |
| 20260506210818 | 15 | 134 | 1.6 | 1.6 | 0.00 | 0.58 | 0.58 | 99 | 1003.6 |
| 20260506210315 | 15 | 338 | 0.0 | 1.6 | 0.00 | 0.58 | 0.58 | 99 | 1003.4 |
| 20260506205812 | 16 | 210 | 1.6 | 3.2 | 0.00 | 0.58 | 0.58 | 98 | 1003.2 |
| 20260506205308 | 16 | 210 | 1.6 | 1.6 | 0.00 | 0.58 | 0.58 | 97 | 1003.4 |
| 20260506204804 | 16 | 210 | 3.2 | 3.2 | 0.00 | 0.58 | 0.58 | 97 | 1003.3 |
| 20260506204302 | 16 | 225 | 4.8 | 6.4 | 0.00 | 0.58 | 0.58 | 97 | 1003.4 |
| 20260506203759 | 16 | 205 | 3.2 | 4.8 | 0.00 | 0.58 | 0.58 | 97 | 1003.4 |
| 20260506203251 | 16 | 204 | 3.2 | 3.2 | 0.00 | 0.58 | 0.58 | 96 | 1003.2 |
| 20260506202748 | 16 | 207 | 3.2 | 3.2 | 0.00 | 0.58 | 0.58 | 98 | 1003.4 |
| 20260506202245 | 15 | 215 | 3.2 | 3.2 | 0.00 | 0.58 | 0.58 | 97 | 1003.3 |
| 20260506201742 | 15 | 135 | 3.2 | 3.2 | 0.00 | 0.58 | 0.58 | 99 | 1003.5 |
| 20260506201238 | 15 | 215 | 1.6 | 3.2 | 0.00 | 0.58 | 0.58 | 99 | 1003.3 |
| 20260506200736 | 15 | 222 | 1.6 | 3.2 | 0.00 | 0.58 | 0.58 | 99 | 1003.7 |
| 20260506200232 | 15 | 223 | 3.2 | 3.2 | 0.00 | 0.58 | 0.58 | 99 | 1003.7 |
| 20260506195728 | 15 | 211 | 1.6 | 1.6 | 0.00 | 0.58 | 0.58 | 99 | 1003.7 |
| 20260506195224 | 15 | 211 | 1.6 | 3.2 | 0.00 | 0.58 | 0.58 | 99 | 1003.5 |
| 20260506194721 | 15 | 208 | 4.8 | 4.8 | 0.00 | 0.58 | 0.58 | 99 | 1003.8 |
| 20260506194218 | 15 | 253 | 3.2 | 4.8 | 0.00 | 0.58 | 0.58 | 99 | 1003.8 |
| 20260506193716 | 15 | 145 | 1.6 | 1.6 | 0.00 | 0.58 | 0.58 | 99 | 1003.7 |
| 20260506193213 | 15 | 198 | 3.2 | 4.8 | 0.00 | 0.58 | 0.58 | 99 | 1003.8 |
| 20260506192709 | 15 | 199 | 3.2 | 3.2 | 0.00 | 0.58 | 0.58 | 99 | 1004.3 |
| 20260506192205 | 15 | 220 | 0.0 | 1.6 | 0.00 | 0.58 | 0.58 | 99 | 1003.8 |
| 20260506191658 | 15 | 160 | 1.6 | 1.6 | 0.00 | 0.58 | 0.58 | 99 | 1003.9 |
| 20260506191153 | 15 | 161 | 1.6 | 1.6 | 0.00 | 0.58 | 0.58 | 99 | 1003.9 |
| 20260506190651 | 15 | 227 | 4.8 | 4.8 | 0.00 | 0.58 | 0.58 | 99 | 1004.3 |
| 20260506190147 | 15 | 254 | 3.2 | 4.8 | 0.00 | 0.58 | 0.58 | 99 | 1004.0 |
| 20260506185645 | 15 | 225 | 3.2 | 3.2 | 0.00 | 0.58 | 0.58 | 99 | 1004.0 |
| 20260506185140 | 15 | 200 | 0.0 | 0.0 | 0.00 | 0.58 | 0.58 | 99 | 1004.3 |
| 20260506184639 | 15 | 218 | 1.6 | 1.6 | 0.00 | 0.58 | 0.58 | 99 | 1004.3 |
| 20260506184136 | 15 | 219 | 3.2 | 3.2 | 0.00 | 0.58 | 0.58 | 99 | 1004.4 |
| 20260506183632 | 15 | 221 | 1.6 | 1.6 | 0.00 | 0.58 | 0.58 | 99 | 1003.9 |
| 20260506183128 | 15 | 166 | 0.0 | 1.6 | 0.00 | 0.58 | 0.58 | 99 | 1004.4 |
| 20260506182626 | 15 | 219 | 1.6 | 3.2 | 0.18 | 0.58 | 0.58 | 99 | 1004.4 |
| 20260506182122 | 15 | 222 | 4.8 | 4.8 | 0.18 | 0.58 | 0.58 | 99 | 1004.4 |
| 20260506181620 | 15 | 207 | 3.2 | 4.8 | 0.00 | 0.56 | 0.56 | 99 | 1004.4 |
| 20260506181117 | 15 | 213 | 3.2 | 3.2 | 0.00 | 0.56 | 0.56 | 99 | 1004.5 |
| 20260506180614 | 15 | 197 | 3.2 | 3.2 | 0.00 | 0.56 | 0.56 | 99 | 1004.5 |
| 20260506180110 | 15 | 338 | 4.8 | 6.4 | 0.00 | 0.56 | 0.56 | 99 | 1004.7 |
| 20260506175606 | 15 | 237 | 3.2 | 4.8 | 0.00 | 0.56 | 0.56 | 99 | 1004.6 |
| 20260506175057 | 15 | 218 | 3.2 | 3.2 | 0.00 | 0.56 | 0.56 | 99 | 1004.9 |
| 20260506174556 | 15 | 212 | 4.8 | 6.4 | 0.00 | 0.56 | 0.56 | 99 | 1004.6 |
| 20260506174052 | 14 | 214 | 3.2 | 4.8 | 0.00 | 0.56 | 0.56 | 99 | 1004.6 |
| 20260506173550 | 14 | 236 | 6.4 | 6.4 | 0.00 | 0.56 | 0.56 | 99 | 1004.8 |
| 20260506173046 | 14 | 229 | 4.8 | 4.8 | 0.00 | 0.56 | 0.56 | 99 | 1004.7 |
| 20260506172544 | 14 | 230 | 4.8 | 6.4 | 0.00 | 0.56 | 0.56 | 99 | 1004.9 |
| 20260506172039 | 14 | 230 | 4.8 | 4.8 | 0.13 | 0.56 | 0.56 | 99 | 1004.6 |
| 20260506171536 | 14 | 307 | 6.4 | 9.7 | 0.13 | 0.56 | 0.56 | 99 | 1004.7 |
| 20260506171034 | 14 | 255 | 4.8 | 6.4 | 0.00 | 0.53 | 0.53 | 99 | 1004.7 |
| 20260506170531 | 15 | 190 | 3.2 | 4.8 | 0.18 | 0.53 | 0.53 | 99 | 1004.7 |
| 20260506170023 | 15 | 195 | 1.6 | 1.6 | 0.36 | 0.53 | 0.53 | 99 | 1004.8 |
| 20260506165521 | 15 | 232 | 4.8 | 6.4 | 0.18 | 0.51 | 0.51 | 99 | 1004.8 |
| 20260506165012 | 15 | 331 | 3.2 | 4.8 | 0.00 | 0.48 | 0.48 | 99 | 1004.6 |
| 20260506164509 | 15 | 195 | 4.8 | 4.8 | 0.00 | 0.48 | 0.48 | 99 | 1004.8 |
| 20260506164007 | 15 | 189 | 1.6 | 3.2 | 0.13 | 0.48 | 0.48 | 99 | 1004.8 |
| 20260506163502 | 15 | 205 | 0.0 | 0.0 | 0.13 | 0.48 | 0.48 | 99 | 1004.8 |
| 20260506162956 | 15 | 188 | 1.6 | 1.6 | 0.00 | 0.46 | 0.46 | 99 | 1004.8 |
| 20260506162454 | 15 | 184 | 3.2 | 4.8 | 0.18 | 0.46 | 0.46 | 99 | 1004.7 |
| 20260506161945 | 15 | 175 | 4.8 | 6.4 | 0.18 | 0.46 | 0.46 | 99 | 1004.8 |
| 20260506161443 | 15 | 197 | 1.6 | 3.2 | 0.13 | 0.43 | 0.43 | 99 | 1005.1 |
| 20260506160935 | 14 | 179 | 1.6 | 1.6 | 0.13 | 0.43 | 0.43 | 99 | 1005.1 |
| 20260506160432 | 14 | 232 | 6.4 | 9.7 | 0.18 | 0.41 | 0.41 | 99 | 1005.2 |
| 20260506155929 | 14 | 206 | 3.2 | 3.2 | 0.30 | 0.41 | 0.41 | 99 | 1005.4 |
| 20260506155426 | 14 | 181 | 1.6 | 1.6 | 0.30 | 0.38 | 0.38 | 99 | 1005.6 |
| 20260506153548 | 15 | 197 | 1.6 | 1.6 | 0.18 | 0.30 | 0.30 | 99 | 1005.5 |
| 20260506153046 | 15 | 156 | 1.6 | 1.6 | 0.00 | 0.28 | 0.28 | 99 | 1005.5 |
| 20260506152542 | 15 | 213 | 4.8 | 6.4 | 0.00 | 0.28 | 0.28 | 99 | 1005.5 |
| 20260506152041 | 15 | 201 | 3.2 | 4.8 | 0.13 | 0.28 | 0.28 | 99 | 1005.5 |
| 20260506151538 | 15 | 233 | 3.2 | 3.2 | 0.30 | 0.28 | 0.28 | 99 | 1005.5 |
| 20260506151035 | 15 | 263 | 6.4 | 6.4 | 0.18 | 0.25 | 0.25 | 99 | 1005.2 |
| 20260506150531 | 15 | 151 | 1.6 | 3.2 | 0.13 | 0.23 | 0.23 | 99 | 1005.6 |
| 20260506150029 | 15 | 274 | 8.0 | 12.9 | 0.13 | 0.23 | 0.23 | 99 | 1005.5 |
| 20260506145525 | 15 | 167 | 9.7 | 11.3 | 0.18 | 0.20 | 0.20 | 99 | 1005.6 |
| 20260506145023 | 15 | 201 | 1.6 | 3.2 | 0.36 | 0.20 | 0.20 | 99 | 1005.7 |
| 20260506144519 | 15 | 149 | 0.0 | 0.0 | 0.18 | 0.18 | 0.18 | 99 | 1005.7 |
| 20260506144017 | 15 | 159 | 0.0 | 1.6 | 0.00 | 0.15 | 0.15 | 99 | 1005.9 |
| 20260506143514 | 15 | 155 | 1.6 | 3.2 | 0.13 | 0.15 | 0.15 | 99 | 1005.9 |
| 20260506143013 | 15 | 155 | 1.6 | 3.2 | 0.30 | 0.15 | 0.15 | 99 | 1005.7 |
| 20260506142510 | 15 | 169 | 0.0 | 1.6 | 0.30 | 0.13 | 0.13 | 99 | 1006.0 |
| 20260506142008 | 15 | 201 | 1.6 | 1.6 | 0.13 | 0.10 | 0.10 | 98 | 1006.0 |
| 20260506141506 | 15 | 250 | 3.2 | 3.2 | 0.18 | 0.08 | 0.08 | 98 | 1006.0 |
| 20260506141004 | 15 | 270 | 3.2 | 4.8 | 0.18 | 0.08 | 0.08 | 98 | 1006.1 |
| 20260506140500 | 15 | 166 | 0.0 | 1.6 | 0.18 | 0.08 | 0.08 | 98 | 1006.0 |
| 20260506135957 | 15 | 166 | 1.6 | 3.2 | 0.13 | 0.05 | 0.05 | 97 | 1006.2 |
| 20260506135455 | 15 | 236 | 0.0 | 1.6 | 0.18 | 0.03 | 0.03 | 95 | 1006.1 |
| 20260506134950 | 15 | 232 | 3.2 | 3.2 | 0.18 | 0.03 | 0.03 | 94 | 1006.2 |
| 20260506134446 | 15 | 225 | 1.6 | 1.6 | 0.00 | 0.00 | 0.00 | 91 | 1006.2 |
| 20260506133943 | 16 | 220 | 1.6 | 1.6 | 0.00 | 0.00 | 0.00 | 90 | 1006.3 |
| 20260506133440 | 16 | 248 | 3.2 | 3.2 | 0.00 | 0.00 | 0.00 | 89 | 1006.5 |
| 20260506132937 | 16 | 256 | 6.4 | 6.4 | 0.00 | 0.00 | 0.00 | 88 | 1006.2 |
| 20260506132434 | 16 | 212 | 4.8 | 6.4 | 0.00 | 0.00 | 0.00 | 88 | 1006.1 |
| 20260506131932 | 16 | 271 | 3.2 | 9.7 | 0.00 | 0.00 | 0.00 | 88 | 1006.2 |
| 20260506131428 | 16 | 157 | 3.2 | 4.8 | 0.00 | 0.00 | 0.00 | 88 | 1006.1 |
| 20260506130925 | 16 | 185 | 1.6 | 3.2 | 0.00 | 0.00 | 0.00 | 88 | 1006.1 |
| 20260506130421 | 16 | 246 | 4.8 | 4.8 | 0.00 | 0.00 | 0.00 | 88 | 1005.9 |
| 20260506125920 | 16 | 233 | 3.2 | 3.2 | 0.00 | 0.00 | 0.00 | 87 | 1005.4 |
| 20260506125418 | 16 | 223 | 1.6 | 4.8 | 0.00 | 0.00 | 0.00 | 87 | 1005.6 |
| 20260506124916 | 16 | 212 | 1.6 | 3.2 | 0.00 | 0.00 | 0.00 | 86 | 1005.7 |
| 20260506124413 | 16 | 152 | 1.6 | 3.2 | 0.00 | 0.00 | 0.00 | 86 | 1005.6 |
| 20260506123911 | 16 | 208 | 3.2 | 3.2 | 0.00 | 0.00 | 0.00 | 85 | 1005.5 |
| 20260506123408 | 16 | 159 | 0.0 | 1.6 | 0.00 | 0.00 | 0.00 | 84 | 1005.5 |
| 20260506122905 | 16 | 150 | 1.6 | 3.2 | 0.00 | 0.00 | 0.00 | 84 | 1005.8 |
| 20260506122402 | 16 | 220 | 0.0 | 1.6 | 0.00 | 0.00 | 0.00 | 84 | 1005.9 |
| 20260506121901 | 16 | 201 | 6.4 | 6.4 | 0.00 | 0.00 | 0.00 | 83 | 1006.0 |
| 20260506121357 | 16 | 210 | 1.6 | 3.2 | 0.00 | 0.00 | 0.00 | 82 | 1006.0 |
| 20260506120854 | 16 | 224 | 1.6 | 1.6 | 0.00 | 0.00 | 0.00 | 82 | 1006.0 |
| 20260506120352 | 16 | 174 | 3.2 | 3.2 | 0.00 | 0.00 | 0.00 | 82 | 1006.1 |
| 20260506115849 | 16 | 249 | 6.4 | 6.4 | 0.00 | 0.00 | 0.00 | 81 | 1005.9 |
| 20260506115347 | 16 | 203 | 1.6 | 1.6 | 0.00 | 0.00 | 0.00 | 81 | 1006.0 |
| 20260506114845 | 16 | 196 | 3.2 | 3.2 | 0.00 | 0.00 | 0.00 | 81 | 1006.1 |
| 20260506114342 | 16 | 233 | 3.2 | 4.8 | 0.00 | 0.00 | 0.00 | 81 | 1006.0 |
| 20260506113841 | 16 | 200 | 1.6 | 3.2 | 0.00 | 0.00 | 0.00 | 81 | 1005.8 |
| 20260506113338 | 16 | 315 | 3.2 | 3.2 | 0.00 | 0.00 | 0.00 | 80 | 1005.8 |
| 20260506112834 | 16 | 207 | 8.0 | 11.3 | 0.00 | 0.00 | 0.00 | 80 | 1005.8 |
| 20260506112332 | 16 | 237 | 3.2 | 6.4 | 0.00 | 0.00 | 0.00 | 80 | 1005.9 |
| 20260506111829 | 16 | 177 | 6.4 | 9.7 | 0.00 | 0.00 | 0.00 | 79 | 1005.7 |
| 20260506111328 | 16 | 246 | 8.0 | 11.3 | 0.00 | 0.00 | 0.00 | 79 | 1005.8 |
| 20260506110824 | 16 | 242 | 3.2 | 3.2 | 0.00 | 0.00 | 0.00 | 78 | 1005.5 |
| 20260506110321 | 16 | 250 | 6.4 | 12.9 | 0.00 | 0.00 | 0.00 | 78 | 1005.8 |
| 20260506105818 | 16 | 205 | 3.2 | 3.2 | 0.00 | 0.00 | 0.00 | 79 | 1005.5 |
| 20260506105315 | 16 | 126 | 3.2 | 3.2 | 0.00 | 0.00 | 0.00 | 79 | 1005.5 |
| 20260506104812 | 16 | 66 | 1.6 | 1.6 | 0.00 | 0.00 | 0.00 | 78 | 1005.6 |
| 20260506104310 | 16 | 223 | 3.2 | 3.2 | 0.00 | 0.00 | 0.00 | 77 | 1005.4 |
| 20260506103808 | 16 | 231 | 4.8 | 6.4 | 0.00 | 0.00 | 0.00 | 78 | 1005.4 |
| 20260506103305 | 16 | 186 | 3.2 | 4.8 | 0.00 | 0.00 | 0.00 | 77 | 1005.6 |
| 20260506102802 | 16 | 250 | 9.7 | 12.9 | 0.00 | 0.00 | 0.00 | 77 | 1005.4 |
| 20260506102300 | 16 | 230 | 3.2 | 3.2 | 0.00 | 0.00 | 0.00 | 77 | 1005.8 |
| 20260506101757 | 16 | 235 | 8.0 | 12.9 | 0.00 | 0.00 | 0.00 | 76 | 1005.4 |
| 20260506101253 | 16 | 344 | 3.2 | 4.8 | 0.00 | 0.00 | 0.00 | 76 | 1005.8 |
| 20260506100751 | 16 | 215 | 1.6 | 1.6 | 0.00 | 0.00 | 0.00 | 76 | 1005.4 |
| 20260506100249 | 16 | 214 | 6.4 | 9.7 | 0.00 | 0.00 | 0.00 | 75 | 1005.5 |